When you browse on this site, cookies collect data to enhance your experience and personalize the content and advertising you see.
Visit our Privacy Policy to learn more. By continuing to use the site, you agree to this use of cookies and data.
  • în România
  • Lista ţărilor
  • Pe 7 zile
  • Temperatura apei
  • Meteo pe hartă
  • Widget-uri
  • user-avatar
    Intrare

    Meteo pe oră la San Juan

    Astăzi, 2 Iunie, Marţi

    Timp Temperatura Precipitaţii Vânt Presiune Umiditate
    00:00 +9°C° 0 mm 0 m/s 707 mmHg 49%
    01:00 +8°C° 0 mm 0 m/s 707 mmHg 50%
    02:00 +8°C° 0 mm 0 m/s 707 mmHg 51%
    03:00 +7°C° 0 mm 0 m/s 706 mmHg 53%
    04:00 +7°C° 0 mm 0 m/s 706 mmHg 54%
    05:00 +7°C° 0 mm 0 m/s 706 mmHg 53%
    06:00 +8°C° 0 mm 0 m/s 706 mmHg 51%
    07:00 +9°C° 0 mm 1 m/s 706 mmHg 50%
    08:00 +12°C° 0 mm 1 m/s 706 mmHg 43%
    09:00 +14°C° 0 mm 2 m/s 706 mmHg 35%
    10:00 +17°C° 0 mm 2 m/s 706 mmHg 28%
    11:00 +18°C° 0 mm 2 m/s 706 mmHg 26%
    12:00 +19°C° 0 mm 2 m/s 705 mmHg 25%
    13:00 +20°C° 0 mm 3 m/s 704 mmHg 23%
    14:00 +20°C° 0 mm 2 m/s 703 mmHg 24%
    15:00 +19°C° 0 mm 2 m/s 703 mmHg 24%
    16:00 +19°C° 0 mm 2 m/s 702 mmHg 25%
    17:00 +18°C° 0 mm 1 m/s 702 mmHg 29%
    18:00 +15°C° 0 mm 1 m/s 702 mmHg 33%
    19:00 +13°C° 0 mm 1 m/s 702 mmHg 37%
    20:00 +12°C° 0 mm 1 m/s 702 mmHg 38%
    21:00 +12°C° 0 mm 1 m/s 701 mmHg 40%
    22:00 +12°C° 0 mm 1 m/s 701 mmHg 41%
    23:00 +11°C° 0 mm 1 m/s 701 mmHg 44%

    Mâine, 3 Iunie, Miercuri

    Timp Temperatura Precipitaţii Vânt Presiune Umiditate
    00:00 +9°C° 0 mm 2 m/s 701 mmHg 48%
    01:00 +9°C° 0 mm 2 m/s 700 mmHg 52%
    02:00 +8°C° 0 mm 3 m/s 701 mmHg 54%
    03:00 +7°C° 0 mm 4 m/s 701 mmHg 55%
    04:00 +7°C° 0 mm 5 m/s 701 mmHg 57%
    05:00 +7°C° 0 mm 6 m/s 702 mmHg 59%
    06:00 +6°C° 0 mm 7 m/s 703 mmHg 62%
    07:00 +5°C° 0 mm 9 m/s 703 mmHg 65%
    08:00 +6°C° 0 mm 10 m/s 704 mmHg 63%
    09:00 +7°C° 0 mm 10 m/s 705 mmHg 61%
    10:00 +8°C° 0 mm 11 m/s 706 mmHg 58%
    11:00 +7°C° 0.2 mm 11 m/s 706 mmHg 66%
    12:00 +6°C° 0.2 mm 10 m/s 706 mmHg 74%
    13:00 +5°C° 0.2 mm 9 m/s 706 mmHg 81%
    14:00 +5°C° 0.5 mm 9 m/s 707 mmHg 81%
    15:00 +5°C° 0.5 mm 9 m/s 707 mmHg 81%
    16:00 +5°C° 0.5 mm 9 m/s 708 mmHg 81%
    17:00 +5°C° 0.4 mm 9 m/s 709 mmHg 81%
    18:00 +5°C° 0.4 mm 8 m/s 710 mmHg 81%
    19:00 +5°C° 0.4 mm 7 m/s 710 mmHg 81%
    20:00 +5°C° 0.1 mm 6 m/s 711 mmHg 81%
    21:00 +7°C° 0.1 mm 5 m/s 711 mmHg 81%
    22:00 +7°C° 0.1 mm 4 m/s 712 mmHg 81%
    23:00 +7°C° 0 mm 3 m/s 712 mmHg 82%

    Poimâine, 4 Iunie, Joi

    Timp Temperatura Precipitaţii Vânt Presiune Umiditate
    00:00 +7°C° 0 mm 2 m/s 711 mmHg 83%
    01:00 +8°C° 0 mm 1 m/s 711 mmHg 84%
    02:00 +7°C° 0 mm 1 m/s 711 mmHg 84%
    03:00 +6°C° 0 mm 0 m/s 711 mmHg 85%
    04:00 +5°C° 0 mm 0 m/s 711 mmHg 86%
    05:00 +6°C° 0 mm 1 m/s 711 mmHg 85%
    06:00 +7°C° 0 mm 1 m/s 711 mmHg 84%
    07:00 +6°C° 0 mm 2 m/s 711 mmHg 84%
    08:00 +7°C° 0 mm 2 m/s 711 mmHg 75%
    09:00 +9°C° 0 mm 2 m/s 711 mmHg 66%
    10:00 +10°C° 0 mm 2 m/s 711 mmHg 57%
    11:00 +12°C° 0 mm 2 m/s 710 mmHg 52%
    12:00 +13°C° 0 mm 2 m/s 709 mmHg 48%
    13:00 +14°C° 0 mm 1 m/s 708 mmHg 43%
    14:00 +14°C° 0 mm 2 m/s 708 mmHg 42%
    15:00 +14°C° 0 mm 2 m/s 708 mmHg 41%
    16:00 +13°C° 0 mm 3 m/s 708 mmHg 41%
    17:00 +12°C° 0 mm 3 m/s 708 mmHg 44%
    18:00 +12°C° 0 mm 2 m/s 708 mmHg 48%
    19:00 +10°C° 0 mm 2 m/s 708 mmHg 52%
    20:00 +10°C° 0 mm 2 m/s 708 mmHg 53%
    21:00 +9°C° 0 mm 2 m/s 708 mmHg 54%
    22:00 +9°C° 0 mm 2 m/s 708 mmHg 55%
    23:00 +9°C° 0 mm 2 m/s 708 mmHg 54%

    5 Iunie, Vineri

    Timp Temperatura Precipitaţii Vânt Presiune Umiditate
    00:00 +8°C° 0 mm 2 m/s 708 mmHg 54%
    01:00 +8°C° 0 mm 2 m/s 708 mmHg 53%
    02:00 +8°C° 0 mm 2 m/s 708 mmHg 52%
    03:00 +7°C° 0 mm 2 m/s 707 mmHg 52%
    04:00 +8°C° 0 mm 1 m/s 707 mmHg 51%
    05:00 +8°C° 0 mm 1 m/s 707 mmHg 50%
    06:00 +8°C° 0 mm 1 m/s 707 mmHg 48%
    07:00 +8°C° 0 mm 1 m/s 708 mmHg 47%
    08:00 +10°C° 0 mm 2 m/s 708 mmHg 39%
    09:00 +13°C° 0 mm 3 m/s 708 mmHg 31%
    10:00 +17°C° 0 mm 3 m/s 708 mmHg 23%
    11:00 +18°C° 0 mm 3 m/s 708 mmHg 20%
    12:00 +19°C° 0 mm 3 m/s 707 mmHg 17%
    13:00 +20°C° 0 mm 3 m/s 707 mmHg 14%
    14:00 +20°C° 0 mm 2 m/s 707 mmHg 15%
    15:00 +19°C° 0 mm 2 m/s 707 mmHg 16%
    16:00 +20°C° 0 mm 1 m/s 707 mmHg 17%
    17:00 +18°C° 0 mm 1 m/s 707 mmHg 21%
    18:00 +15°C° 0 mm 1 m/s 707 mmHg 25%
    19:00 +13°C° 0 mm 1 m/s 707 mmHg 29%
    20:00 +13°C° 0 mm 1 m/s 707 mmHg 30%
    21:00 +12°C° 0 mm 1 m/s 706 mmHg 31%
    22:00 +11°C° 0 mm 1 m/s 706 mmHg 32%
    23:00 +11°C° 0 mm 1 m/s 706 mmHg 31%

    6 Iunie, Sâmbătă

    Timp Temperatura Precipitaţii Vânt Presiune Umiditate
    00:00 +11°C° 0 mm 1 m/s 706 mmHg 31%
    01:00 +10°C° 0 mm 1 m/s 705 mmHg 30%
    02:00 +10°C° 0 mm 1 m/s 705 mmHg 30%
    03:00 +9°C° 0 mm 1 m/s 705 mmHg 31%
    04:00 +9°C° 0 mm 1 m/s 704 mmHg 31%
    05:00 +9°C° 0 mm 1 m/s 704 mmHg 29%
    06:00 +10°C° 0 mm 1 m/s 705 mmHg 26%
    07:00 +10°C° 0 mm 1 m/s 705 mmHg 24%
    08:00 +13°C° 0 mm 2 m/s 705 mmHg 20%
    09:00 +16°C° 0 mm 2 m/s 705 mmHg 16%
    10:00 +19°C° 0 mm 2 m/s 705 mmHg 12%
    11:00 +20°C° 0 mm 3 m/s 705 mmHg 11%
    12:00 +22°C° 0 mm 3 m/s 704 mmHg 9%
    13:00 +24°C° 0 mm 3 m/s 704 mmHg 8%
    14:00 +22°C° 0 mm 3 m/s 703 mmHg 10%
    15:00 +21°C° 0 mm 2 m/s 703 mmHg 11%
    16:00 +20°C° 0 mm 2 m/s 703 mmHg 12%
    17:00 +19°C° 0 mm 1 m/s 703 mmHg 14%
    18:00 +16°C° 0 mm 1 m/s 703 mmHg 16%
    19:00 +14°C° 0 mm 1 m/s 704 mmHg 17%
    20:00 +14°C° 0 mm 1 m/s 704 mmHg 18%
    21:00 +14°C° 0 mm 1 m/s 704 mmHg 18%
    22:00 +13°C° 0 mm 1 m/s 704 mmHg 19%
    23:00 +13°C° 0 mm 1 m/s 704 mmHg 20%

    7 Iunie, Duminică

    Timp Temperatura Precipitaţii Vânt Presiune Umiditate
    00:00 +12°C° 0 mm 2 m/s 705 mmHg 22%
    01:00 +12°C° 0 mm 2 m/s 705 mmHg 23%
    02:00 +10°C° 0 mm 2 m/s 705 mmHg 26%
    03:00 +10°C° 0 mm 2 m/s 705 mmHg 29%
    04:00 +9°C° 0 mm 2 m/s 705 mmHg 32%
    05:00 +9°C° 0 mm 2 m/s 705 mmHg 34%
    06:00 +9°C° 0 mm 2 m/s 706 mmHg 36%
    07:00 +9°C° 0 mm 2 m/s 706 mmHg 37%
    08:00 +12°C° 0 mm 2 m/s 707 mmHg 35%
    09:00 +13°C° 0 mm 3 m/s 707 mmHg 32%
    10:00 +16°C° 0 mm 3 m/s 707 mmHg 29%
    11:00 +17°C° 0 mm 3 m/s 707 mmHg 28%
    12:00 +18°C° 0 mm 3 m/s 706 mmHg 28%
    13:00 +19°C° 0 mm 4 m/s 706 mmHg 27%
    14:00 +18°C° 0 mm 3 m/s 706 mmHg 29%
    15:00 +18°C° 0 mm 2 m/s 705 mmHg 30%
    16:00 +18°C° 0 mm 2 m/s 705 mmHg 31%
    17:00 +16°C° 0 mm 1 m/s 705 mmHg 36%
    18:00 +14°C° 0 mm 1 m/s 706 mmHg 40%
    19:00 +13°C° 0 mm 1 m/s 706 mmHg 45%
    20:00 +12°C° 0 mm 1 m/s 706 mmHg 46%
    21:00 +11°C° 0 mm 0 m/s 706 mmHg 47%
    22:00 +10°C° 0 mm 0 m/s 706 mmHg 48%
    23:00 +10°C° 0 mm 0 m/s 706 mmHg 48%
    Arată mai mult